Theta_e
280 279 279 279 278 279 278 279 279 279 278 278 278 278 278 278 278 278 279 279 280 279 278 278 278 278 278 278 277 277 278 278 278 277 277 277 277 277 277 277 277 277 276 276 276 276 276 276 276 276 276 276 276 276 276 276 276 276 276 276 276 277
280 279 279 279 279 279 279 279 278 278 278 278 278 278 278 278 278 278 278 278 278 278 277 277 278 278 278 278 278 278 278 277 277 277 277 277 277 277 277 277 276 277 276 276 276 276 276 276 275 275 275 275 275 275 275 275 275 275 275 275 276 276
280 279 279 280 279 279 279 279 279 279 278 278 279 279 279 279 279 279 278 278 278 278 278 278 278 278 278 277 277 277 276 276 277 276 276 276 276 276 276 276 276 276 276 276 276 275 275 275 275 276 275 275 275 275 275 275 275 274 275 275 275 275
280 280 281 281 281 280 279 279 279 279 278 278 278 278 278 277 277 277 277 277 277 277 276 276 275 275 275 275 276 277 276 276 276 276 276 276 276 276 276 275 276 275 275 275 275 275 274 274 274 274 274 274 274 274 276 275 274 274 274 274 274 274
281 281 281 281 281 281 280 279 279 279 279 279 278 278 277 277 277 276 277 277 276 276 275 275 275 275 275 275 275 275 275 275 275 275 275 275 275 275 275 274 274 275 274 274 274 274 274 274 274 274 274 274 274 274 274 275 274 274 274 274 274 274
281 281 282 282 282 281 280 279 278 277 277 277 277 277 277 277 277 276 276 276 276 274 274 275 274 274 274 275 274 274 274 274 275 275 275 275 275 274 274 274 274 274 273 273 273 273 273 273 273 273 273 274 274 274 274 274 274 274 274 274 274 274
281 282 282 282 281 280 279 279 278 277 278 277 277 277 276 277 276 276 276 275 276 275 275 274 274 274 274 274 274 274 274 274 274 274 274 274 274 274 273 273 273 273 273 273 272 272 272 273 273 273 273 273 273 273 273 273 273 273 273 274 274 275
282 281 281 281 281 281 280 279 278 277 277 277 277 277 276 276 276 275 275 275 275 275 275 274 274 274 274 274 274 274 274 274 274 273 273 274 273 273 273 272 272 272 272 272 272 272 272 272 272 272 272 272 272 273 273 273 273 273 274 274 274 274
281 281 281 281 281 281 281 280 279 278 277 277 277 276 276 276 276 275 275 275 274 274 274 274 275 274 274 274 274 274 274 273 273 273 272 273 272 272 271 271 271 271 271 271 271 271 271 271 271 271 271 272 272 272 273 273 273 273 274 274 274 274
281 280 281 281 281 281 280 280 280 279 278 278 277 276 276 277 276 275 275 275 274 274 275 274 274 274 274 274 274 273 272 272 271 271 271 270 270 270 270 270 270 270 270 270 270 270 270 270 270 270 270 271 272 272 272 272 272 272 272 273 273 273
281 281 281 281 281 281 280 279 279 278 278 277 277 277 276 276 276 275 274 274 274 274 274 274 274 274 273 273 272 271 271 270 270 269 269 269 269 269 269 269 269 268 268 269 269 269 269 269 269 269 270 271 272 272 272 272 272 272 271 271 272 272
281 281 281 281 281 281 280 279 279 279 278 278 277 277 276 276 275 275 274 274 274 274 273 273 273 272 272 271 270 269 268 268 268 268 267 267 267 267 267 267 267 267 267 266 267 267 267 267 268 269 273 275 273 272 272 272 272 272 271 271 271 271
280 280 281 281 280 280 280 279 279 279 278 278 277 277 276 276 275 274 274 274 273 273 272 271 271 270 269 269 268 266 266 267 265 264 264 264 264 265 265 266 266 265 265 265 265 265 266 266 267 271 273 275 276 274 273 272 272 272 271 271 270 270
279 279 279 280 279 279 279 279 278 277 278 277 277 276 275 275 275 274 273 273 272 271 271 270 269 267 267 266 265 265 263 263 263 262 263 262 263 263 263 264 264 264 264 264 264 264 264 265 268 271 273 274 275 276 273 272 271 271 271 271 270 270
279 279 279 278 279 279 279 279 278 277 278 277 276 274 274 274 274 273 272 271 270 269 268 267 265 265 264 264 263 263 262 261 262 262 262 262 262 262 262 263 263 263 263 263 263 263 263 263 267 270 273 274 275 275 274 272 271 270 270 270 270 269
278 278 278 278 279 279 279 278 278 277 276 276 273 273 273 273 271 271 270 269 268 267 266 265 264 264 263 263 262 262 261 261 261 261 260 261 262 262 261 261 262 262 262 262 262 262 262 263 266 270 273 274 274 275 274 271 271 270 269 269 269 268
277 277 276 277 277 277 277 276 276 275 274 273 273 271 271 270 270 268 268 267 267 265 264 265 263 262 262 262 261 260 260 260 259 261 261 260 261 261 260 260 260 260 260 261 261 261 261 262 268 271 272 273 274 274 274 270 269 269 268 268 268 268
278 278 278 278 277 276 277 276 275 274 272 271 271 269 269 268 268 268 267 265 264 264 265 263 262 261 261 262 260 259 260 260 259 259 260 259 260 258 259 260 258 260 259 260 260 260 260 261 267 269 271 272 273 274 270 268 268 267 267 267 268 268
279 278 277 276 276 275 275 274 273 272 270 269 268 268 267 267 266 266 266 264 264 263 263 263 261 261 260 260 259 258 259 260 259 259 258 258 259 259 259 258 259 259 259 259 259 259 259 260 264 269 270 271 273 271 268 268 267 267 267 267 267 268
276 275 276 274 274 273 272 271 271 270 269 268 266 267 266 265 266 265 264 264 262 263 262 262 260 260 259 258 257 257 259 258 258 257 257 258 258 258 258 258 258 258 258 259 258 259 259 260 263 268 270 271 271 271 268 267 267 267 267 267 268 268
275 274 274 273 272 271 270 270 269 270 269 267 266 266 266 266 265 264 264 264 263 262 260 260 259 259 258 257 258 257 257 257 257 257 256 257 256 257 257 258 257 257 258 258 258 261 261 260 261 266 268 270 271 270 268 268 267 267 267 267 267 268
273 272 272 273 273 270 268 268 269 269 268 267 266 265 266 266 265 264 263 263 262 261 259 259 258 258 257 258 257 256 256 256 256 256 256 256 256 257 257 257 257 257 257 258 258 258 259 259 259 261 268 270 271 272 269 268 267 267 267 267 267 267
276 275 274 274 271 268 267 268 269 268 267 266 265 266 266 264 263 262 262 262 260 258 258 257 257 257 256 256 256 257 256 255 257 257 255 256 256 256 256 256 256 256 257 257 258 258 258 259 259 261 268 270 271 272 271 268 268 268 268 267 267 267
273 272 271 270 269 268 267 268 269 268 266 265 266 266 264 263 262 261 260 259 259 257 256 255 255 256 255 255 255 254 255 255 254 255 255 255 255 255 255 255 256 256 256 257 258 258 258 260 262 261 266 269 271 272 273 270 270 271 270 269 269 269
272 272 272 269 268 267 267 268 268 266 265 266 266 263 262 262 261 261 259 258 257 256 255 254 254 254 254 253 254 254 254 254 253 253 253 254 254 254 254 255 255 256 256 257 257 258 258 259 260 265 264 269 271 272 273 274 273 275 272 270 269 269
273 272 269 268 267 266 267 268 268 266 265 266 263 262 261 260 260 259 257 256 255 254 254 254 253 253 253 253 253 252 252 253 252 252 252 254 254 254 254 255 255 255 255 255 257 257 259 259 260 264 268 268 271 273 274 274 275 275 272 272 271 271
273 271 268 266 265 265 265 265 268 264 264 264 262 262 260 259 257 256 255 254 253 252 251 251 251 251 251 251 252 252 253 253 252 254 252 253 254 254 254 255 254 254 255 255 256 258 260 262 263 264 266 270 272 273 273 274 275 275 276 272 271 272
268 268 268 265 264 264 263 263 265 265 264 261 261 260 259 257 255 254 254 251 251 251 252 252 252 252 252 252 252 252 252 253 253 254 254 254 254 254 254 254 254 254 255 256 258 260 262 264 265 265 266 268 270 271 272 273 274 274 275 275 273 275
269 268 267 266 264 263 262 261 261 262 260 260 260 259 257 254 255 255 254 253 252 251 251 251 251 252 252 251 252 252 252 253 253 253 254 254 254 253 254 254 255 256 257 258 260 262 263 264 264 266 267 268 268 268 269 270 271 273 274 272 272 273
270 269 267 268 265 263 262 261 260 258 259 259 259 256 255 255 255 255 254 251 250 251 251 251 255 255 253 253 251 252 253 253 253 253 254 254 254 254 255 255 256 258 259 260 261 262 262 264 266 267 267 268 268 270 271 272 272 271 271 271 272 272
270 270 268 268 266 263 262 261 260 258 259 259 256 256 256 255 255 253 251 251 250 251 253 253 253 252 252 253 251 252 254 253 254 254 255 256 257 257 257 257 258 259 261 262 262 263 265 266 266 267 271 271 274 272 271 271 271 272 272 273 274 272
270 269 268 268 265 263 262 261 260 258 259 257 256 255 255 255 254 251 252 252 251 250 252 252 251 250 252 252 252 252 252 257 262 261 259 260 264 267 269 268 265 266 267 267 268 268 266 266 267 272 274 274 274 275 275 275 275 274 272 272 273 270
268 268 267 267 263 263 262 261 258 256 257 256 256 256 255 254 254 253 253 252 252 253 253 251 252 252 252 252 252 252 253 253 255 262 265 266 266 267 269 270 271 271 271 269 268 269 271 272 272 273 273 274 274 274 274 273 273 272 271 271 267 264
266 266 267 266 262 262 260 259 257 256 256 256 256 255 255 254 255 255 254 253 253 254 255 254 253 253 253 253 253 253 251 252 252 254 260 264 265 266 267 268 269 270 270 270 270 268 267 269 271 272 273 273 273 272 272 272 271 270 269 269 267 259
268 267 265 262 260 260 259 258 257 256 256 255 255 255 254 253 254 254 253 253 253 254 254 254 253 253 253 252 252 252 251 252 252 252 253 257 262 264 265 266 268 269 268 269 269 270 270 270 271 272 272 273 272 271 271 270 269 268 268 266 259 256
264 263 261 259 259 259 258 258 256 255 255 254 254 254 255 254 254 254 253 253 253 253 253 253 253 253 253 253 253 252 253 252 252 252 253 253 254 256 260 262 263 265 266 266 268 269 269 269 270 271 272 272 270 270 270 268 263 265 265 263 257 256
261 260 259 258 258 257 257 258 256 254 254 254 253 254 253 253 254 252 254 255 255 253 253 254 255 254 253 253 253 252 252 253 254 254 254 253 253 253 253 254 256 260 263 263 265 266 268 269 270 270 271 270 269 269 268 264 257 256 256 256 254 255
259 258 257 257 256 256 257 256 254 254 253 253 252 253 253 253 253 253 253 254 255 254 254 254 253 254 253 253 252 253 253 253 254 254 253 253 254 253 253 253 254 255 260 264 265 266 267 268 269 270 270 268 268 267 265 255 254 254 255 255 255 255
Wind_Speed
5 6 5 4 4 3 3 3 3 3 3 3 4 6 5 5 4 4 4 5 5 6 6 6 5 4 5 4 4 5 6 6 6 6 4 5 5 6 7 6 6 6 6 5 5 5 5 4 5 5 6 5 6 5 6 5 5 6 7 5 5 5
6 7 7 6 5 4 4 4 3 4 4 4 4 4 4 4 5 4 6 4 5 5 4 4 4 4 5 5 6 7 6 4 4 4 5 5 4 5 5 6 6 7 8 7 7 6 5 6 5 5 5 5 4 5 6 5 5 6 6 7 5 5
6 5 5 4 4 4 4 4 5 5 4 4 5 7 5 5 4 4 4 5 5 6 6 5 5 5 5 5 5 5 4 3 4 4 3 4 6 5 6 6 6 6 6 7 7 8 8 9 10 8 8 7 8 7 6 7 7 8 8 7 8 4
6 5 4 4 4 4 5 4 4 4 4 4 5 4 5 6 4 5 4 4 5 5 5 4 4 4 4 5 5 5 5 5 5 4 5 5 5 5 5 5 5 4 5 4 5 4 4 4 4 5 5 6 7 7 5 6 7 7 8 7 9 8
6 7 7 7 7 6 5 5 5 6 5 5 4 6 4 5 5 4 4 5 5 4 4 4 4 4 4 4 4 4 3 3 3 2 3 3 3 3 3 3 3 3 3 3 4 4 4 4 4 4 4 5 5 7 7 6 7 8 8 9 9 9
5 6 7 8 7 6 6 6 5 4 4 4 4 6 5 4 4 4 4 4 4 3 3 3 3 3 3 3 2 2 2 2 1 1 2 1 2 2 2 3 3 3 3 3 4 4 4 5 5 4 4 5 6 7 8 7 7 7 8 8 9 9
8 9 9 8 6 5 6 6 5 5 5 4 5 5 5 4 4 4 4 4 4 3 3 3 2 3 2 2 1 1 1 1 1 2 3 2 3 3 3 3 3 3 4 5 5 5 5 5 5 5 5 5 5 6 7 7 7 8 8 9 9 9
9 8 8 8 7 8 7 6 5 5 5 6 5 5 4 4 3 3 4 3 4 3 2 2 2 2 0 0 1 1 1 2 3 3 3 4 4 4 4 4 5 5 5 5 5 5 5 5 5 5 6 6 5 6 7 7 8 8 9 9 9 9
12 11 9 8 8 7 7 8 7 6 6 6 5 4 4 4 4 3 3 3 3 3 2 2 1 0 0 0 0 1 2 3 3 4 4 4 4 4 5 4 4 4 4 5 4 5 5 6 5 6 6 6 6 7 8 9 9 9 9 9 10 10
10 9 9 9 9 7 7 7 8 8 8 8 6 5 4 3 4 4 3 4 3 3 3 2 1 1 0 1 1 2 2 3 3 3 3 3 3 3 4 5 5 5 4 5 4 5 5 5 5 5 5 6 7 8 8 9 10 10 10 10 10 9
10 10 10 10 8 9 9 8 7 6 5 5 5 5 6 4 4 4 4 4 4 4 3 2 1 1 1 1 1 2 3 3 3 2 2 2 3 3 3 4 5 5 5 4 5 5 5 5 6 5 6 8 9 8 9 9 10 10 11 11 10 9
8 10 10 9 10 10 8 8 8 8 8 7 6 5 4 5 4 5 5 5 5 4 3 3 1 2 1 1 2 2 2 2 2 2 2 2 2 2 3 3 4 3 5 6 5 4 5 5 4 8 15 14 10 10 9 9 10 10 10 10 10 10
8 8 9 10 10 11 10 9 8 7 7 7 6 5 5 5 5 5 6 6 4 4 4 3 2 1 1 1 1 1 1 3 2 2 2 3 3 3 4 4 5 4 5 5 6 6 6 5 6 14 16 16 18 13 12 12 12 12 12 12 12 12
7 9 10 10 9 9 8 8 7 6 8 6 6 5 5 6 6 7 6 5 5 4 4 3 2 1 1 1 2 2 3 2 3 3 3 3 3 4 3 4 4 5 5 5 5 6 6 6 10 16 17 18 18 16 13 12 11 11 11 12 12 12
9 10 9 7 8 9 10 9 7 9 8 7 5 6 6 6 7 6 6 5 5 4 3 2 1 1 1 2 2 2 2 3 3 4 4 4 3 3 4 6 6 6 5 6 7 7 7 6 12 17 18 18 18 19 16 11 11 12 11 12 13 13
6 7 8 8 8 9 6 7 8 6 4 6 6 7 6 7 5 6 6 5 4 4 3 2 1 1 1 1 2 2 3 3 4 3 3 3 4 4 4 4 5 5 6 6 8 8 8 8 12 18 19 19 20 19 17 11 12 11 12 12 12 12
6 5 5 7 7 4 4 4 4 5 5 6 7 5 7 5 7 5 6 5 4 4 2 2 1 1 1 1 2 3 3 3 3 3 3 3 4 5 5 6 6 5 5 6 7 8 9 7 16 18 19 19 20 21 18 11 11 10 11 11 12 13
9 9 10 5 4 5 5 6 5 6 5 4 7 6 5 6 6 6 5 5 4 3 3 2 1 0 1 1 2 3 3 3 3 4 4 3 3 3 3 4 3 6 6 6 7 8 10 8 16 18 19 20 20 22 12 10 11 11 11 11 12 13
7 7 3 4 5 5 5 5 6 7 7 6 5 6 5 5 5 6 5 4 4 4 2 2 1 1 1 1 3 3 3 4 4 4 3 5 4 5 4 4 4 5 6 8 7 9 10 8 12 18 20 20 21 17 9 10 9 11 11 13 14 13
3 3 6 5 4 4 5 6 7 8 8 7 6 6 6 5 6 5 5 5 4 4 3 2 1 1 1 2 3 3 2 2 3 3 3 4 6 6 5 5 6 5 5 7 8 7 11 11 12 18 20 21 21 18 12 10 8 10 12 13 13 12
5 5 5 6 6 5 6 7 8 8 8 7 7 6 6 6 6 6 6 6 4 3 3 2 2 2 1 1 2 2 3 3 3 3 3 3 4 6 5 6 7 7 5 6 8 12 13 11 12 17 19 21 20 16 10 9 9 8 8 11 12 12
7 4 5 7 8 7 8 7 8 7 8 7 6 6 7 8 7 5 5 5 4 3 2 2 2 1 0 1 2 2 2 3 3 3 4 4 4 6 5 6 6 9 8 6 8 8 8 11 11 11 21 20 21 21 12 9 8 10 12 10 10 10
8 10 11 8 8 9 8 8 8 7 6 7 7 9 7 5 5 6 5 4 3 2 2 2 1 0 1 1 2 2 2 3 3 4 4 5 5 5 6 7 7 8 9 7 7 7 8 7 11 12 20 21 21 22 18 10 10 11 11 11 11 10
5 4 3 5 9 9 9 8 9 7 7 6 9 7 4 6 6 6 4 4 2 2 2 1 0 0 1 1 1 2 3 3 3 3 4 4 5 7 8 6 7 8 9 7 6 6 8 9 14 12 18 21 22 22 23 14 11 13 13 13 10 11
7 9 9 6 8 8 8 9 9 8 6 10 8 5 6 6 6 6 4 3 3 1 1 0 1 1 0 1 1 2 3 3 3 4 3 4 5 6 8 7 7 8 9 9 6 5 7 8 9 16 15 20 22 23 22 24 20 24 16 12 14 13
8 7 5 6 6 7 7 11 10 8 9 10 4 6 5 5 4 4 4 3 2 1 1 1 1 1 1 1 2 2 3 4 3 3 3 4 5 6 7 6 6 7 8 10 9 6 6 7 8 11 18 18 22 22 24 24 25 25 16 14 13 12
12 9 6 6 7 7 7 7 11 8 10 5 7 6 7 6 5 5 4 4 2 1 1 1 1 1 2 2 2 2 3 4 2 4 2 3 5 6 7 7 5 7 8 8 9 9 7 7 7 8 11 19 22 24 24 24 26 26 27 18 13 14
4 6 8 6 7 8 6 7 8 12 7 6 7 6 7 7 6 4 4 3 2 2 0 1 2 2 3 3 3 3 3 4 4 4 5 4 6 6 7 7 6 6 7 8 8 9 9 9 9 10 9 10 16 17 22 26 26 26 26 25 21 27
8 9 10 11 8 8 7 7 6 5 6 8 8 7 7 6 5 5 4 4 3 1 1 2 3 3 3 2 3 3 3 3 3 4 5 5 6 6 6 7 6 7 7 8 9 9 9 10 9 9 9 9 10 10 12 13 13 18 20 14 13 17
10 11 11 12 11 10 8 7 7 6 7 7 8 7 7 7 6 6 6 4 3 2 3 3 4 3 3 3 2 3 4 4 4 4 6 6 6 6 7 6 7 7 7 7 9 11 11 9 8 8 9 10 10 10 10 10 11 11 10 12 11 12
12 13 13 13 9 10 9 9 8 8 9 9 8 9 8 7 5 5 4 3 3 4 3 3 4 3 3 4 4 5 5 5 5 6 7 7 7 8 9 8 8 9 10 10 7 6 7 9 9 8 14 16 20 17 14 12 11 11 10 16 25 18
12 12 13 11 8 10 11 10 9 7 7 8 8 8 8 7 6 5 5 4 4 4 4 3 4 3 4 4 5 5 5 8 12 9 7 6 12 18 20 17 10 8 8 8 8 6 8 7 10 20 24 22 23 24 25 23 25 24 19 22 27 18
10 10 9 8 8 10 11 10 9 9 8 9 8 9 8 7 7 5 5 5 6 6 5 4 4 4 4 5 5 4 5 5 6 12 16 16 16 16 17 18 20 20 19 11 8 8 16 19 21 21 21 23 22 22 23 23 23 24 24 23 16 9
9 12 15 9 9 10 9 10 9 10 9 8 8 8 8 8 8 8 7 6 5 5 5 4 4 4 4 5 4 5 4 4 6 8 10 11 11 13 15 17 18 17 13 12 12 11 8 13 17 20 21 21 20 20 20 21 22 22 20 19 16 8
13 10 6 7 9 9 9 10 9 8 8 8 8 8 9 9 8 8 6 6 5 5 5 5 5 4 5 5 5 5 4 4 4 7 9 8 12 13 12 12 12 8 8 12 14 16 15 15 16 19 19 19 18 18 18 20 20 19 17 15 8 6
5 6 7 7 9 10 9 10 9 9 8 8 8 8 9 9 9 7 6 6 6 6 5 5 5 5 5 4 5 5 5 4 4 5 5 7 8 11 9 1 3 7 11 13 16 17 16 16 17 17 17 17 17 17 17 18 14 16 13 10 6 5
6 6 7 9 8 8 8 8 7 6 7 7 8 8 7 7 7 6 5 7 6 5 5 5 4 5 4 4 5 5 5 5 4 4 4 4 5 5 6 11 9 7 8 10 11 13 15 15 16 16 15 16 16 16 17 16 9 11 9 6 2 3
6 5 6 7 7 7 6 5 4 5 6 6 7 7 7 6 6 5 5 5 5 5 4 4 5 4 5 5 5 5 4 5 5 5 4 4 4 5 7 7 8 8 11 16 12 12 14 16 16 15 14 14 15 15 15 8 8 8 8 9 8 7
Wind_Direction
178 170 176 188 183 178 170 153 142 125 118 122 126 128 132 131 119 106 92 91 96 97 97 100 96 95 90 83 79 69 58 45 36 33 27 19 19 18 13 11 11 9 8 14 6 4 2 357 358 359 359 0 353 346 340 329 338 335 329 325 331 320
179 177 174 177 180 174 178 161 144 143 145 135 133 122 118 110 111 113 104 107 107 106 102 82 85 79 76 64 62 54 52 44 37 28 24 17 18 17 12 11 7 3 2 1 358 354 356 356 359 360 356 351 349 336 336 328 333 326 320 317 317 315
182 182 175 175 174 172 164 163 161 159 155 147 149 131 128 119 131 121 128 118 98 91 85 83 76 67 68 65 58 64 54 39 37 33 20 11 20 11 9 10 3 1 358 354 353 352 348 350 347 352 350 347 341 340 332 330 332 326 320 317 313 310
175 178 170 161 162 177 173 170 149 152 159 155 139 127 133 136 142 130 117 98 108 107 101 92 83 77 63 63 41 40 28 17 20 17 15 22 357 13 1 357 351 351 345 347 334 333 331 327 330 325 335 328 327 324 323 321 319 313 310 312 311 316
179 176 174 177 183 183 173 168 168 165 158 150 151 133 156 146 145 128 126 121 114 112 97 88 64 57 50 53 34 29 14 1 360 20 32 9 349 346 347 335 336 329 331 329 321 324 327 326 322 318 317 313 312 312 312 311 310 310 310 312 308 311
173 172 182 188 190 183 182 185 179 167 156 151 147 146 162 154 144 136 123 120 107 98 91 79 59 69 53 51 29 20 348 353 344 11 37 20 352 351 331 336 331 335 331 330 325 329 327 325 321 318 312 308 310 308 307 307 304 300 300 298 302 306
184 192 190 188 188 187 189 192 188 171 166 162 166 176 180 164 150 138 131 133 127 94 100 82 62 66 42 24 14 354 350 2 20 27 19 23 6 358 349 347 354 344 345 343 337 332 333 326 322 320 313 307 300 297 301 303 302 300 297 295 294 296
194 194 193 190 191 191 191 195 192 186 177 190 187 180 186 188 151 147 138 132 138 127 94 73 66 66 32 338 329 1 24 37 30 26 13 16 359 355 356 352 353 348 338 338 331 328 325 327 323 318 314 309 310 306 302 301 300 298 298 297 296 295
203 199 191 191 194 196 191 188 193 190 188 199 204 201 187 183 162 152 145 129 132 136 129 94 98 174 205 249 16 49 44 40 23 23 11 2 360 350 351 348 343 340 335 326 328 329 331 326 321 318 314 316 313 310 306 307 305 302 301 298 297 298
198 191 194 195 199 192 195 197 191 189 189 198 203 198 195 184 161 156 149 142 139 139 129 145 200 177 147 82 73 68 43 36 24 20 2 360 1 1 349 344 339 331 330 321 335 329 328 323 321 317 318 312 311 310 308 307 306 303 300 297 294 293
194 195 197 198 186 191 199 196 198 200 205 205 199 187 199 174 161 162 153 149 159 157 150 163 152 112 98 84 82 51 30 22 20 7 359 5 8 359 338 343 333 325 330 333 329 330 326 322 319 326 318 316 313 310 306 307 303 301 298 297 295 293
195 196 195 191 190 196 196 197 197 197 197 206 201 191 185 149 171 162 162 166 166 149 146 144 131 123 123 88 55 47 17 14 10 357 8 19 4 346 340 333 325 330 332 329 325 326 321 314 319 309 311 314 313 312 308 304 301 300 301 301 302 299
202 196 193 194 194 197 195 198 198 196 200 202 188 186 174 157 163 167 167 171 155 146 137 133 137 119 111 84 68 33 23 13 2 13 19 11 359 348 346 329 335 343 328 327 324 322 319 315 308 310 312 313 312 311 307 306 305 303 303 302 302 303
193 192 197 201 200 197 196 198 197 185 203 191 186 175 157 158 165 167 170 155 146 141 138 137 140 123 96 65 27 20 10 7 4 12 7 357 356 348 337 339 339 329 328 322 320 314 312 309 309 310 311 311 311 311 308 306 302 302 300 299 298 299
199 198 201 200 199 197 206 193 178 197 197 180 173 138 155 162 163 157 152 147 139 136 127 134 125 114 69 38 24 13 3 11 3 4 357 356 344 333 347 340 335 329 330 323 318 315 310 303 308 307 310 311 313 313 312 304 302 298 297 297 298 298
206 208 205 203 204 204 194 182 189 190 160 150 143 153 158 153 155 150 147 139 133 130 130 122 108 72 47 29 19 13 7 12 7 350 339 336 340 344 334 333 329 326 322 320 314 309 307 302 305 308 311 314 314 314 313 305 304 299 298 299 299 297
204 206 212 220 210 189 154 179 166 128 132 145 147 152 148 150 145 140 142 138 130 125 127 128 111 74 40 22 21 11 7 5 346 347 345 348 337 337 330 327 324 317 315 310 306 302 302 299 306 310 314 315 315 314 315 308 305 299 296 294 292 290
200 200 214 204 168 180 183 181 152 142 145 138 144 145 144 143 140 141 134 139 147 148 149 140 123 108 56 29 11 15 354 355 349 339 337 333 321 300 303 299 301 305 307 302 300 301 297 298 308 311 314 314 315 315 314 309 299 296 292 292 294 292
199 208 173 160 179 172 179 147 143 137 136 141 144 141 143 141 148 158 156 154 157 156 153 139 126 105 62 33 13 0 347 345 335 335 330 326 318 316 314 304 302 300 300 301 299 299 297 296 307 311 313 315 315 316 302 298 293 293 293 292 294 291
155 149 158 152 146 149 135 143 143 142 143 148 148 147 152 154 171 166 161 163 161 156 144 130 116 86 52 28 2 337 325 320 309 303 322 319 317 313 306 306 302 291 291 294 296 295 298 299 307 311 312 312 312 310 306 300 286 279 286 289 290 291
153 143 128 141 153 157 145 144 143 142 154 157 160 160 163 184 175 171 169 164 157 139 138 126 98 81 50 4 317 314 307 308 298 297 301 289 290 292 302 302 299 295 287 281 286 296 298 295 302 307 307 308 308 308 297 289 284 275 269 288 289 283
120 131 154 178 185 154 153 150 152 155 159 168 158 170 191 194 181 166 147 138 137 140 125 105 93 76 37 301 303 295 285 288 301 299 306 302 293 297 301 295 292 294 291 288 287 287 287 293 294 297 302 305 305 306 301 290 285 282 279 270 270 279
177 182 192 190 160 157 158 157 151 169 169 163 171 203 199 170 146 144 144 137 137 129 116 99 109 133 270 252 262 275 295 292 296 307 307 306 305 297 296 293 291 288 287 286 281 281 282 278 290 292 299 304 305 304 304 287 279 279 278 277 275 268
193 186 178 171 160 162 164 162 170 172 169 169 204 202 145 146 145 138 139 145 140 129 109 117 102 179 223 258 270 294 286 272 281 291 297 294 300 299 292 293 291 290 289 287 281 277 279 280 283 289 296 302 303 304 303 298 285 289 289 289 281 279
192 203 195 168 165 166 173 166 173 178 172 199 206 148 150 142 141 141 143 142 141 134 138 165 189 254 217 260 259 269 285 288 296 291 293 297 296 290 290 290 289 292 293 294 285 273 274 275 272 285 290 298 302 305 304 301 300 302 300 294 288 284
198 200 179 169 170 173 173 175 178 180 188 211 140 146 135 139 136 138 144 152 156 142 169 205 245 254 250 262 275 278 281 290 287 286 281 283 283 287 289 285 286 290 293 299 300 287 272 269 269 276 289 294 299 305 304 304 303 302 298 292 288 291
199 191 179 180 178 182 183 185 180 178 201 183 143 152 150 145 143 144 163 174 176 182 215 299 275 270 267 259 238 268 276 288 288 297 272 270 279 276 282 284 279 282 289 293 293 298 292 282 280 284 284 296 306 308 307 304 302 302 302 300 291 285
183 171 189 193 188 188 185 191 175 186 199 145 156 148 148 145 146 161 183 189 188 209 191 291 291 270 255 258 241 233 245 256 278 277 285 271 269 266 269 279 279 277 278 280 286 291 297 298 299 295 290 293 303 302 300 299 300 300 300 299 299 301
186 196 193 201 198 190 192 186 197 177 138 158 147 147 143 148 160 171 178 192 200 200 183 214 258 277 268 252 245 237 244 247 249 257 269 262 268 269 263 269 272 277 274 274 286 292 298 305 298 295 301 304 299 292 288 289 287 293 300 298 286 290
203 204 199 208 196 188 185 185 181 160 148 148 151 143 145 158 172 181 190 198 189 209 199 211 239 245 264 264 248 261 264 252 235 245 252 254 256 265 269 260 263 263 269 277 286 293 293 287 292 304 306 302 295 295 301 300 300 299 293 295 299 302
207 211 201 211 184 178 181 186 175 164 156 155 152 153 157 171 174 172 182 189 172 216 212 213 224 229 241 261 256 242 232 244 253 257 261 243 232 238 252 262 249 257 264 262 253 262 278 302 306 304 306 306 313 315 312 308 308 314 320 320 319 318
210 212 211 211 174 177 182 181 174 170 161 155 157 157 163 167 167 173 199 194 198 217 213 225 226 228 232 239 253 260 269 246 254 254 250 246 254 258 257 258 256 260 273 282 284 290 296 302 302 307 311 315 314 314 317 321 322 324 325 326 326 326
211 212 216 202 176 183 181 175 171 169 170 163 163 165 166 159 170 189 202 196 208 206 207 210 224 226 226 233 237 244 263 293 285 284 281 277 276 273 274 279 281 286 288 287 295 303 302 303 307 311 314 315 318 325 329 327 328 333 333 332 334 348
209 208 214 190 177 180 177 174 176 174 172 168 163 163 162 171 176 193 203 198 204 204 206 208 215 225 231 241 238 241 256 272 296 298 292 290 286 288 288 286 288 287 286 294 304 309 306 308 310 314 316 319 329 334 332 333 339 340 339 343 357 349
210 211 191 167 177 174 179 176 181 174 171 169 165 163 169 179 186 194 196 194 198 202 206 211 214 224 221 235 238 244 238 254 268 295 308 310 307 304 295 292 291 291 302 311 313 312 312 313 316 317 319 328 338 337 336 339 344 341 344 352 356 339
191 184 176 175 178 177 175 182 179 178 171 166 167 170 180 183 192 194 189 193 196 198 210 212 219 220 227 222 227 229 234 240 247 260 279 305 322 329 331 296 287 302 308 308 311 315 316 317 320 321 326 338 342 341 343 348 339 335 347 354 334 320
170 171 171 168 170 175 183 188 177 171 164 164 165 171 179 185 189 193 203 197 192 199 211 216 221 219 222 221 228 231 234 242 244 250 260 273 292 300 292 306 307 303 293 300 305 310 317 321 324 325 334 344 347 345 352 349 340 344 342 345 317 306
160 163 155 161 167 172 179 189 156 159 160 161 163 170 182 186 191 193 201 212 213 213 218 223 223 221 222 227 237 231 236 233 233 240 246 263 267 269 284 284 283 294 306 308 309 315 321 324 328 327 341 349 348 351 1 350 338 333 330 329 327 330